Date,TemperatureHighF,TemperatureAvgF,TemperatureLowF,DewpointHighF,DewpointAvgF,DewpointLowF,HumidityHigh,HumidityAvg,HumidityLow,PressureMaxIn,PressureMinIn,WindSpeedMaxMPH,WindSpeedAvgMPH,GustSpeedMaxMPH,PrecipitationSumIn
2013-1-1,27.0,22.0,13.7,23.6,19.1,11.1,93,89,80,30.36,30.17,16,7,19,0.06
2013-1-2,35.4,23.7,12.8,28.5,20.0,10.4,92,86,73,30.37,30.24,12,5,14,0.01
2013-1-3,35.6,27.0,19.9,25.9,21.7,16.4,92,80,65,30.53,30.36,12,5,15,0.01
2013-1-4,44.9,31.1,19.3,29.6,23.7,16.6,92,75,53,30.49,30.00,14,7,21,0.00
2013-1-5,48.4,37.9,30.6,33.1,28.9,22.0,85,71,50,30.25,30.06,16,10,22,0.00
2013-1-6,50.7,35.6,24.0,26.3,23.6,19.4,84,64,36,30.39,30.23,10,6,12,0.00
2013-1-7,52.8,39.0,28.0,28.1,24.7,20.5,74,57,36,30.24,29.99,19,12,26,0.00
2013-1-8,56.8,42.1,32.3,35.7,31.1,25.6,85,67,43,30.16,29.91,17,10,22,0.00
2013-1-9,52.5,41.9,30.1,35.8,31.5,25.9,85,68,51,30.37,30.16,17,8,22,0.00
2013-1-10,47.7,44.7,41.1,46.9,42.7,34.7,97,93,63,30.18,29.75,15,8,18,0.51
2013-1-11,59.9,50.5,40.6,49.1,43.7,24.9,98,79,39,29.86,29.55,20,14,27,0.01
2013-1-12,40.1,28.0,21.4,33.8,18.4,10.0,82,67,57,30.19,29.85,19,14,27,0.00
2013-1-13,28.7,20.5,12.9,13.0,8.7,6.3,76,61,40,30.46,30.17,17,9,24,0.00
2013-1-14,31.7,22.5,14.7,15.2,11.7,8.5,79,64,43,30.58,30.42,9,4,13,0.00
2013-1-15,34.6,25.2,16.5,15.9,13.5,11.0,83,62,41,30.44,30.28,7,3,11,0.00
2013-1-16,52.1,33.3,18.3,32.5,22.8,11.9,80,66,46,30.30,30.14,10,5,12,0.00
2013-1-17,56.5,41.2,28.6,33.3,29.5,24.8,86,65,39,30.55,30.30,11,6,14,0.00
2013-1-18,59.2,43.8,31.5,34.3,30.9,26.9,84,63,37,30.45,30.09,22,12,29,0.00
2013-1-19,62.9,46.8,31.6,34.3,29.3,25.5,86,54,26,30.26,30.05,12,6,14,0.00
2013-1-20,52.9,38.1,26.1,29.8,23.7,8.5,85,57,39,30.42,30.19,21,10,27,0.00
2013-1-21,36.6,27.1,16.1,16.0,13.1,7.9,79,56,41,30.49,30.33,17,4,20,0.00
2013-1-22,46.4,29.7,16.2,23.6,17.7,10.9,81,63,39,30.38,30.24,10,5,13,0.00
2013-1-23,57.0,37.9,23.9,33.5,24.6,17.2,78,60,39,30.37,30.18,18,5,22,0.00
2013-1-24,31.7,25.3,22.1,22.8,16.4,11.2,92,69,51,30.41,30.17,20,9,25,0.00
2013-1-25,50.0,36.0,23.0,27.1,24.2,19.0,89,64,40,30.35,30.22,6,2,10,0.00
2013-1-26,56.4,44.0,31.9,41.8,32.4,23.9,89,65,42,30.29,30.04,20,10,24,0.01
2013-1-27,68.1,53.3,43.1,56.1,49.3,39.8,97,87,63,30.04,29.72,22,15,33,0.00
2013-1-28,72.9,61.7,51.4,60.5,54.2,48.0,94,78,44,29.82,29.60,25,15,40,0.00
2013-1-29,65.0,43.7,34.4,60.2,39.9,31.9,93,86,73,29.67,29.50,16,11,25,0.02
2013-1-30,34.6,29.5,21.7,32.0,22.9,16.8,91,77,57,30.06,29.66,24,14,36,0.00
2013-1-31,31.5,24.6,15.5,23.6,16.0,7.8,88,70,53,30.46,30.03,22,9,30,0.00
2013-2-1,36.6,24.3,13.4,14.1,10.0,6.8,79,57,35,30.44,30.16,13,6,20,0.00
2013-2-2,56.8,41.2,27.4,35.1,26.1,13.7,86,56,35,30.27,30.16,18,8,24,0.00
2013-2-3,56.8,45.0,27.5,31.1,26.1,20.1,80,49,29,30.24,29.79,18,10,24,0.00
2013-2-4,55.7,45.7,34.9,31.9,30.3,27.7,76,56,38,29.92,29.74,17,8,21,0.00
2013-2-5,64.1,46.1,29.2,32.9,27.4,25.1,86,54,24,29.99,29.86,11,6,18,0.00
2013-2-6,57.0,48.4,36.5,54.5,42.0,27.9,96,79,58,29.99,29.76,19,9,26,0.00
2013-2-7,54.7,48.4,36.4,50.9,41.9,30.3,97,79,51,30.14,29.75,21,11,31,0.22
2013-2-8,45.4,34.6,26.7,36.1,30.4,25.3,96,85,67,30.30,30.10,11,6,15,0.00
2013-2-9,49.6,39.6,32.7,42.7,36.2,30.0,97,88,71,30.10,29.56,25,14,36,0.02
2013-2-10,50.9,43.4,33.7,45.4,32.5,24.9,97,67,45,30.01,29.45,31,16,41,0.03
2013-2-11,46.5,37.0,28.4,25.8,22.0,18.6,77,56,34,30.19,30.01,15,7,22,0.00
2013-2-12,40.9,35.1,30.2,32.4,26.0,21.7,94,70,52,30.14,29.97,8,4,10,0.00
2013-2-13,58.6,39.8,24.6,30.4,25.7,18.8,95,63,22,29.99,29.85,16,9,23,0.00
2013-2-14,50.7,41.4,34.2,33.8,28.7,19.9,77,61,46,30.25,29.88,16,9,24,0.00
2013-2-15,41.6,31.6,22.2,22.8,17.5,13.1,80,58,36,30.40,30.24,16,9,26,0.00
2013-2-16,48.4,32.6,16.8,31.6,19.8,10.8,80,61,40,30.37,29.97,19,8,29,0.00
2013-2-17,70.4,47.6,28.3,35.5,29.8,25.2,91,56,21,29.98,29.51,23,10,31,0.00
2013-2-18,54.7,46.3,32.7,40.7,28.9,19.0,75,51,38,30.08,29.38,34,19,49,0.00
2013-2-19,45.6,33.7,23.5,19.8,17.6,12.4,76,53,35,30.32,30.08,15,8,21,0.00
2013-2-20,34.4,28.6,25.2,32.9,19.2,-99.9,95,75,38,30.23,29.98,19,14,26,0.06
2013-2-21,34.4,20.1,15.0,32.9,1.6,-99.9,95,80,91,29.98,29.67,27,7,101,1.33
2013-2-22,26.1,16.4,8.3,22.8,13.7,5.7,91,89,87,30.16,29.91,13,1,16,0.12
2013-2-23,32.4,19.9,4.7,26.4,16.5,1.8,91,87,77,30.13,29.92,12,4,16,0.03
2013-2-24,43.7,34.1,21.9,34.5,27.9,-99.9,89,80,68,29.92,29.73,15,9,18,0.00
2013-2-25,36.9,33.2,31.5,32.5,27.6,-99.9,96,88,83,29.83,29.61,29,17,40,0.14
2013-2-26,37.2,31.3,27.1,30.4,28.5,23.8,96,90,75,29.91,29.66,19,4,25,0.11
2013-2-27,37.9,31.0,25.4,28.2,25.8,23.1,93,81,66,30.17,29.90,22,12,31,0.00
2013-2-28,35.6,30.9,24.2,29.2,25.7,20.3,87,81,76,30.23,30.16,17,10,21,0.00
2013-3-1,34.4,29.1,21.7,27.4,23.5,17.0,91,80,67,30.35,30.20,18,9,25,0.00
2013-3-2,36.8,27.7,16.0,27.2,21.2,12.9,90,77,60,30.38,30.14,9,4,11,0.00
2013-3-3,53.5,41.2,28.8,42.0,33.2,24.8,85,74,60,30.14,29.56,15,9,19,0.00
2013-3-4,46.2,41.7,37.0,38.9,35.4,32.1,90,78,67,30.02,29.50,22,12,38,0.07
2013-3-5,42.1,35.2,28.9,34.7,24.3,18.3,91,65,50,30.37,30.02,23,14,33,0.00
2013-3-6,45.6,35.0,24.1,30.7,24.0,18.5,81,65,49,30.42,30.15,14,7,18,0.00
2013-3-7,65.3,48.3,32.6,34.5,29.9,25.4,77,52,28,30.15,29.93,23,14,29,0.00
2013-3-8,58.9,51.5,43.3,48.5,41.1,32.0,80,68,55,30.01,29.80,22,15,32,0.00
2013-3-9,58.9,52.0,42.0,57.3,43.7,-99.9,97,87,75,29.82,29.46,21,12,28,0.74
2013-3-10,41.6,34.7,29.8,39.7,31.3,23.9,94,87,78,29.89,29.50,27,20,38,0.00
2013-3-11,49.5,40.8,27.3,29.4,23.5,18.2,76,51,34,30.02,29.93,15,7,19,0.00
2013-3-12,52.8,44.0,37.1,37.6,30.2,22.5,87,60,40,30.32,30.00,16,8,24,0.01
2013-3-13,56.5,41.8,28.5,35.9,27.2,19.8,80,57,39,30.42,30.22,16,8,22,0.00
2013-3-14,75.8,55.2,37.0,50.8,39.2,28.1,80,57,35,30.21,29.99,16,8,21,0.00
2013-3-15,77.8,61.6,45.8,53.9,46.9,40.9,84,61,33,30.00,29.59,15,8,22,0.00
2013-3-16,59.6,48.2,38.2,48.7,38.7,30.6,80,70,59,29.91,29.60,24,17,32,0.00
2013-3-17,41.7,38.2,35.1,36.8,33.1,29.1,94,82,74,29.92,29.63,22,11,30,0.01
2013-3-18,56.7,45.3,37.3,37.7,31.0,22.6,95,63,28,29.98,29.70,18,8,25,0.01
2013-3-19,53.6,42.1,30.3,32.6,25.2,20.6,82,53,31,30.24,29.97,16,9,21,0.00
2013-3-20,48.5,38.7,30.6,31.7,23.5,14.9,92,58,32,30.38,29.98,17,7,22,0.00
2013-3-21,48.5,39.5,34.3,30.9,24.1,19.3,87,55,39,29.98,29.65,23,16,33,0.00
2013-3-22,49.0,38.1,31.7,35.9,32.1,29.6,92,80,58,29.92,29.79,14,9,18,0.00
2013-3-23,36.3,34.0,31.3,33.3,32.0,29.9,96,92,83,29.91,29.77,22,13,34,0.15
2013-3-24,33.7,29.6,24.2,30.1,23.2,-99.9,96,79,60,30.16,29.88,25,17,35,0.00
2013-3-25,34.4,28.9,23.3,22.9,19.8,17.3,79,69,53,30.38,30.16,19,13,27,0.00
2013-3-26,47.7,33.4,20.0,30.0,23.1,16.2,88,67,45,30.43,30.18,12,6,18,0.00
2013-3-27,62.2,47.6,36.7,37.5,30.9,24.2,66,53,34,30.18,30.01,22,11,31,0.00
2013-3-28,67.9,51.8,34.8,50.4,41.1,31.2,88,68,50,30.10,29.98,10,7,16,0.00
2013-3-29,72.1,59.7,46.9,57.5,51.5,44.1,91,75,55,30.06,29.92,13,8,18,0.00
2013-3-30,73.2,60.9,51.9,59.6,54.8,49.6,95,81,53,29.94,29.76,13,7,23,0.25
2013-3-31,65.5,56.0,44.4,52.8,44.8,38.0,95,69,39,29.96,29.82,26,8,38,0.05
2013-4-1,52.1,41.1,36.2,41.2,32.0,-99.9,90,74,62,30.20,29.87,21,12,29,0.31
2013-4-2,41.0,37.3,33.0,32.8,30.1,27.0,89,75,60,30.25,30.16,16,10,21,0.38
2013-4-3,39.5,38.2,34.8,35.2,32.1,27.8,89,79,63,30.29,30.18,18,9,25,0.04
2013-4-4,56.7,45.7,37.8,44.8,38.9,34.5,92,78,58,30.21,30.06,7,5,11,0.00
2013-4-5,63.4,51.0,36.6,49.7,42.8,34.5,94,75,57,30.10,29.75,23,12,33,0.00
2013-4-6,74.1,62.0,52.8,52.4,47.4,43.0,79,61,36,29.76,29.64,24,12,35,0.00
2013-4-7,67.6,59.5,51.9,60.6,52.7,43.2,93,79,56,29.76,29.55,20,8,27,0.02
2013-4-8,70.4,64.5,58.6,63.0,60.0,56.9,95,85,75,29.58,29.45,20,13,29,0.00
2013-4-9,73.5,57.3,32.7,64.2,49.8,-99.9,93,83,63,29.86,29.43,27,16,40,0.37
2013-4-10,34.4,31.0,30.5,31.7,26.6,-99.9,93,90,87,29.98,29.71,26,2,36,0.69
2013-4-11,54.1,38.7,28.2,37.8,30.7,25.5,90,74,43,29.95,29.69,15,4,25,0.17
2013-4-12,57.6,43.0,30.4,41.0,33.5,27.4,89,70,47,29.99,29.81,13,6,19,0.00
2013-4-13,71.5,55.4,38.8,53.3,44.0,34.3,86,67,48,30.00,29.52,23,12,33,0.00
2013-4-14,72.5,62.8,56.1,56.9,46.6,29.5,74,57,31,29.63,29.35,24,15,35,0.01
2013-4-15,56.4,52.5,46.7,39.3,32.9,26.6,57,47,33,29.86,29.61,22,14,28,0.00
2013-4-16,48.4,44.8,42.7,41.2,36.0,29.3,94,72,52,29.99,29.82,24,17,32,0.01
2013-4-17,46.4,43.7,41.3,45.3,42.4,39.3,97,95,93,29.92,29.62,21,12,28,0.15
2013-4-18,41.1,36.9,30.8,39.2,31.5,26.1,94,81,66,30.05,29.63,25,18,38,0.10
2013-4-19,62.7,44.4,29.0,37.8,30.7,24.8,85,62,35,30.10,29.97,19,10,28,0.00
2013-4-20,61.2,50.2,35.6,41.7,36.5,30.3,83,61,41,30.05,29.90,17,11,23,0.00
2013-4-21,67.8,58.8,50.2,46.9,42.8,38.3,71,56,39,30.07,29.95,23,13,34,0.00
2013-4-22,71.5,58.0,38.3,57.9,48.0,36.3,93,70,59,30.00,29.70,27,13,36,1.09
2013-4-23,38.2,33.5,31.3,35.9,30.3,27.0,94,88,74,30.26,29.86,29,18,41,1.45
2013-4-24,57.6,42.0,27.1,39.5,31.8,25.1,93,70,37,30.30,30.17,10,6,15,0.00
2013-4-25,65.8,52.4,36.9,45.3,38.4,32.5,85,61,36,30.26,29.96,21,10,29,0.00
2013-4-26,57.3,51.9,50.4,49.4,46.1,-99.9,95,83,48,30.07,29.97,19,10,28,0.23
2013-4-27,66.0,54.0,48.8,54.8,50.3,47.3,96,88,65,30.08,29.92,12,6,17,0.01
2013-4-28,80.5,61.9,46.1,60.1,52.9,45.0,97,76,37,29.94,29.67,16,10,24,0.01
2013-4-29,85.4,70.5,55.4,63.5,57.3,51.5,95,66,39,29.68,29.48,20,12,27,0.00
2013-4-30,82.5,71.5,60.8,63.7,57.8,52.0,83,63,43,29.64,29.53,25,16,38,0.00
2013-5-1,72.8,57.0,39.1,64.0,50.5,-99.9,90,80,65,30.17,29.63,31,15,45,0.15
2013-5-2,49.2,39.2,35.3,36.5,25.4,-99.9,93,74,43,30.43,30.14,30,20,44,0.96
2013-5-3,56.8,45.2,34.3,39.1,32.3,28.6,87,63,35,30.35,29.95,19,11,31,0.00
2013-5-4,49.2,43.6,37.5,41.1,35.5,29.1,87,73,61,30.06,29.87,23,15,35,0.00
2013-5-5,60.4,50.3,42.6,51.8,45.6,39.4,93,84,70,30.12,30.01,16,9,21,0.00
2013-5-6,67.5,55.0,42.5,55.7,49.3,40.5,96,82,59,30.09,29.95,10,5,14,0.00
2013-5-7,71.9,60.9,51.5,58.5,52.8,47.9,92,76,55,30.00,29.80,15,8,20,0.01
2013-5-8,77.5,64.2,57.6,66.4,54.1,-99.9,92,76,60,29.90,29.65,29,13,49,1.32
2013-5-9,72.5,62.8,55.3,62.3,53.3,-99.9,94,78,61,29.90,29.67,28,8,33,0.24
2013-5-10,69.2,60.6,53.5,56.4,53.2,49.5,94,78,52,30.00,29.89,14,9,20,0.00
2013-5-11,66.8,58.8,50.7,53.4,44.6,36.6,89,63,36,30.19,30.00,24,10,33,0.00
2013-5-12,69.4,57.1,44.5,49.2,41.7,-99.9,78,58,41,30.20,29.98,18,8,25,0.07
2013-5-13,82.7,65.9,48.8,62.7,53.2,43.8,85,65,39,30.02,29.84,11,6,16,0.00
2013-5-14,87.5,74.2,59.3,59.7,53.7,47.7,70,51,29,29.84,29.70,19,12,28,0.01
2013-5-15,78.9,68.8,61.8,65.4,59.7,55.1,90,73,57,29.76,29.67,21,11,28,0.00
2013-5-16,77.0,67.7,60.1,63.7,61.2,58.5,96,81,58,29.76,29.67,11,6,15,0.00
2013-5-17,81.0,69.2,58.9,66.3,62.6,57.5,97,81,58,29.80,29.70,13,6,18,0.00
2013-5-18,84.0,75.0,68.4,74.6,69.2,57.7,96,83,58,29.75,29.48,21,11,33,0.00
2013-5-19,81.8,69.0,62.6,71.0,61.4,-99.9,92,81,66,29.65,29.30,25,10,59,1.43
2013-5-20,79.5,69.6,57.9,63.7,57.5,53.0,88,67,43,29.68,29.51,10,5,15,0.00
2013-5-21,73.0,63.4,53.1,54.8,51.3,48.5,85,66,45,29.76,29.63,13,6,19,0.00
2013-5-22,78.0,63.4,51.0,58.5,52.7,47.5,88,70,44,29.85,29.70,11,6,16,0.00
2013-5-23,70.7,62.4,55.4,59.5,54.8,50.1,86,77,62,30.07,29.84,20,8,26,0.00
2013-5-24,76.7,66.9,56.3,67.9,60.8,53.4,91,81,70,30.11,29.94,16,12,23,0.00
2013-5-25,81.4,76.2,68.4,69.0,66.7,64.3,87,73,61,29.98,29.82,22,15,33,0.00
2013-5-26,81.7,72.9,65.4,70.9,67.2,62.6,92,83,69,29.87,29.72,23,14,34,0.00
2013-5-27,82.6,74.8,70.1,71.3,69.0,67.3,93,82,66,29.72,29.47,27,19,38,0.00
2013-5-28,82.8,75.6,70.7,74.0,69.2,66.7,90,81,67,29.62,29.47,27,16,39,0.00
2013-5-29,81.3,71.6,62.2,69.2,64.9,-99.9,91,81,66,29.59,29.41,28,19,42,0.22
2013-5-30,79.0,66.9,58.3,68.0,59.1,-99.9,95,80,57,29.64,29.39,29,10,45,1.66
2013-5-31,80.5,72.8,67.1,70.7,66.1,59.3,96,81,56,29.63,29.50,17,6,21,0.00
2013-6-1,71.8,65.4,57.4,63.1,55.1,49.5,88,70,58,29.96,29.59,20,10,30,0.00
2013-6-2,70.8,60.9,51.4,52.5,49.1,45.7,86,67,44,30.05,29.90,15,8,21,0.00
2013-6-3,80.8,66.5,52.4,63.5,56.3,50.1,93,72,43,29.93,29.67,21,12,28,0.00
2013-6-4,82.7,73.7,65.2,69.5,64.8,-33.7,90,74,1,29.80,29.48,41,10,59,0.01
2013-6-5,72.9,66.8,60.8,66.7,59.4,-99.9,95,83,73,29.90,29.65,17,8,29,1.20
2013-6-6,74.0,65.4,56.4,58.3,54.7,50.9,91,71,45,29.92,29.85,15,8,22,0.00
2013-6-7,79.8,68.1,55.2,60.5,55.8,51.4,88,67,45,29.92,29.78,9,4,12,0.00
2013-6-8,82.1,69.5,60.9,63.4,57.2,-99.9,92,69,44,29.79,29.57,25,13,37,0.21
2013-6-9,86.8,73.0,59.1,66.9,59.7,49.3,96,67,35,29.80,29.69,11,5,17,0.00
2013-6-10,96.4,80.6,64.4,70.4,65.4,60.7,90,63,36,29.75,29.62,15,8,21,0.00
2013-6-11,96.5,83.6,69.8,69.0,61.9,53.3,74,52,26,29.73,29.60,24,16,34,0.00
2013-6-12,99.5,85.2,73.7,72.6,68.4,64.1,83,60,34,29.80,29.63,21,10,28,0.00
2013-6-13,89.0,77.3,65.0,69.9,63.0,55.6,74,62,49,29.94,29.79,18,10,25,0.00
2013-6-14,97.5,83.2,68.1,71.8,66.3,57.4,93,61,30,29.84,29.67,19,10,30,0.00
2013-6-15,88.8,79.7,73.2,69.8,66.4,63.4,86,65,44,29.82,29.70,27,10,40,0.00
2013-6-16,92.2,78.3,69.0,70.4,66.9,62.1,92,70,40,29.85,29.72,21,7,30,0.00
2013-6-17,82.1,73.2,64.6,69.4,65.8,61.7,95,79,58,29.90,29.65,25,8,42,0.51
2013-6-18,88.6,77.0,64.6,70.0,63.4,54.0,96,67,32,29.92,29.80,17,6,25,0.00
2013-6-19,85.4,73.0,65.8,70.6,58.5,-99.9,91,71,51,29.91,29.75,19,11,27,0.24
2013-6-20,94.0,81.9,70.8,72.7,69.6,67.4,90,69,45,29.81,29.68,25,17,37,0.00
2013-6-21,94.9,84.6,75.7,71.9,68.7,65.6,75,60,41,29.78,29.69,27,18,38,0.00
2013-6-22,93.8,83.4,74.5,69.4,66.2,60.7,80,58,38,29.78,29.65,27,18,39,0.00
2013-6-23,94.2,83.2,75.5,68.7,66.6,61.3,77,59,35,29.73,29.63,25,18,37,0.00
2013-6-24,92.5,82.8,74.9,70.1,67.2,-28.6,77,60,42,29.77,29.61,26,17,38,0.06
2013-6-25,95.0,84.0,75.7,72.3,69.7,66.8,80,63,44,29.75,29.53,27,19,39,0.03
2013-6-26,100.9,88.5,74.8,73.9,70.3,61.6,85,59,29,29.74,29.61,14,8,18,0.00
2013-6-27,104.3,86.0,69.4,75.3,70.4,-99.9,90,65,29,29.87,29.61,41,8,55,0.51
2013-6-28,93.3,81.2,69.9,70.7,65.4,57.5,91,63,33,29.91,29.77,17,8,23,0.00
2013-6-29,88.3,78.8,68.7,61.4,56.5,51.1,71,48,32,29.86,29.72,20,10,34,0.00
2013-6-30,81.6,72.3,60.6,59.7,54.6,49.4,84,56,34,29.94,29.81,19,10,27,0.00
2013-7-1,81.5,70.3,58.9,57.9,52.0,46.4,83,56,31,30.04,29.94,17,9,23,0.00
2013-7-2,84.0,72.7,60.5,56.6,50.1,39.4,69,47,22,30.03,29.92,15,8,27,0.00
2013-7-3,84.7,71.8,63.1,55.4,51.3,47.6,67,50,29,30.00,29.84,15,6,19,0.00
2013-7-4,89.7,75.0,59.4,59.1,54.2,48.1,80,51,27,29.90,29.76,17,8,25,0.00
2013-7-5,90.7,79.6,66.6,62.3,58.7,53.8,79,51,31,29.82,29.69,27,14,37,0.00
2013-7-6,85.1,77.0,71.0,69.1,64.8,61.3,81,66,56,29.80,29.69,22,12,32,0.03
2013-7-7,97.3,85.5,74.7,65.6,63.2,57.9,69,49,29,29.83,29.73,20,15,27,0.00
2013-7-8,98.9,86.4,75.3,68.3,65.2,59.1,70,52,29,29.89,29.77,18,12,25,0.00
2013-7-9,104.2,90.0,76.5,70.3,66.3,59.8,77,50,24,29.85,29.68,16,12,24,0.00
2013-7-10,98.8,87.2,72.1,72.0,66.8,63.2,82,53,32,29.84,29.75,15,7,20,0.04
2013-7-11,92.3,82.3,74.0,73.7,68.9,64.2,84,65,43,29.90,29.75,24,10,29,0.40
2013-7-12,97.5,87.4,72.5,71.5,67.8,63.8,77,54,37,29.83,29.73,15,10,23,0.00
2013-7-13,98.3,86.8,75.3,71.9,69.2,66.7,82,58,38,29.83,29.71,17,11,24,0.00
2013-7-14,84.3,73.1,66.6,71.5,67.9,62.2,95,85,57,29.95,29.75,23,6,31,0.78
2013-7-15,78.2,70.0,64.7,71.0,65.3,61.9,93,85,68,30.17,29.95,21,7,28,0.32
2013-7-16,88.3,76.1,64.5,70.4,66.4,62.7,94,74,49,30.25,30.15,17,6,24,0.00
2013-7-17,89.7,78.3,67.9,72.6,69.0,66.1,96,75,48,30.28,30.15,11,5,18,0.02
2013-7-18,90.8,80.1,68.3,72.3,68.1,63.9,96,70,42,30.18,29.97,17,7,23,0.00
2013-7-19,94.5,83.1,71.1,69.6,66.7,63.6,86,60,37,30.00,29.82,13,8,22,0.00
2013-7-20,95.4,81.0,71.6,71.0,67.3,62.2,88,66,34,29.88,29.75,18,10,27,0.00
2013-7-21,87.4,77.1,69.3,75.0,71.0,67.5,96,82,63,29.86,29.75,14,9,19,0.54
2013-7-22,87.1,77.3,72.7,75.9,68.9,-99.9,91,78,53,29.87,29.73,16,8,31,0.50
2013-7-23,91.5,80.8,68.3,75.8,69.7,59.6,93,70,52,29.92,29.70,26,10,37,0.66
2013-7-24,87.7,76.6,68.3,73.9,67.4,-99.9,94,76,46,30.01,29.86,13,6,18,0.12
2013-7-25,86.2,77.0,69.1,73.0,68.9,63.1,91,77,61,30.03,29.95,15,7,22,0.00
2013-7-26,84.3,74.9,66.5,70.7,66.2,-99.9,95,77,49,30.05,29.93,19,9,26,1.11
2013-7-27,79.0,70.4,61.8,64.0,59.7,55.2,86,70,57,30.10,29.94,14,9,19,0.05
2013-7-28,66.6,62.6,60.7,64.0,58.4,-99.9,96,92,87,30.06,29.95,16,9,23,1.32
2013-7-29,84.3,74.0,63.8,75.3,68.9,60.7,93,84,70,30.00,29.77,23,11,30,0.04
2013-7-30,81.0,74.5,70.7,73.9,71.0,69.2,97,89,77,30.06,29.90,10,5,15,0.00
2013-7-31,85.7,75.6,67.4,73.2,69.5,66.2,97,83,57,30.13,30.01,9,4,14,0.01
2013-8-1,87.5,78.2,67.6,71.3,68.6,65.8,96,74,52,30.09,29.89,12,6,17,0.00
2013-8-2,92.3,80.7,68.9,79.8,74.1,67.0,96,81,64,29.90,29.75,28,10,34,1.76
2013-8-3,86.2,78.2,72.4,78.0,72.3,-99.9,94,83,70,30.00,29.84,16,10,24,0.39
2013-8-4,77.6,73.9,71.3,74.3,71.3,-99.9,97,93,88,30.08,29.95,19,8,27,2.78
2013-8-5,91.3,80.4,71.6,78.2,73.7,69.2,96,81,58,29.96,29.73,22,8,34,0.14
2013-8-6,91.8,81.2,71.3,77.5,72.7,66.4,95,76,57,29.87,29.70,17,6,28,0.03
2013-8-7,89.0,78.9,71.3,74.8,71.0,67.2,93,78,53,29.88,29.72,18,7,26,0.02
2013-8-8,80.7,73.2,67.7,72.0,68.2,-99.9,97,87,71,29.94,29.78,25,7,36,1.20
2013-8-9,73.4,69.0,62.4,69.9,65.5,59.9,96,89,72,30.12,29.92,17,9,26,0.60
2013-8-10,83.6,73.2,63.5,69.6,65.1,61.1,94,77,53,30.19,30.05,10,5,17,0.00
2013-8-11,84.8,76.1,65.9,72.9,69.2,64.1,95,80,62,30.11,29.96,9,4,13,0.00
2013-8-12,86.3,76.6,68.8,74.2,71.0,66.5,95,84,61,30.03,29.92,16,5,23,0.42
2013-8-13,83.0,72.0,67.6,72.7,68.3,64.7,95,88,64,30.10,29.96,25,6,35,0.17
2013-8-14,80.5,71.2,62.2,66.0,63.5,60.7,95,78,54,30.16,30.03,10,5,17,0.01
2013-8-15,82.0,70.0,62.7,71.0,64.2,58.8,94,83,67,30.08,29.92,30,7,39,0.40
2013-8-16,80.2,69.6,61.6,68.2,64.1,60.4,96,84,60,30.12,30.01,8,4,14,0.01
2013-8-17,79.0,70.1,61.1,66.1,62.2,59.1,94,77,58,30.16,30.05,10,5,17,0.00
2013-8-18,82.5,71.4,61.1,66.5,62.4,57.7,90,75,54,30.13,30.01,11,6,19,0.00
2013-8-19,85.8,72.7,64.3,69.6,65.8,62.0,94,80,54,30.07,29.94,15,7,20,0.00
2013-8-20,89.7,77.3,66.3,70.0,66.5,63.6,91,72,46,30.02,29.92,13,8,20,0.00
2013-8-21,91.6,78.7,67.2,67.6,65.4,62.1,89,67,40,30.02,29.95,15,8,23,0.00
2013-8-22,88.8,78.8,68.1,71.5,67.6,62.3,91,70,42,30.04,29.94,12,7,18,0.00
2013-8-23,94.0,80.5,69.0,74.4,70.3,65.7,95,74,41,30.01,29.90,16,8,21,0.00
2013-8-24,93.3,81.2,71.0,73.7,70.9,68.6,93,73,46,30.06,29.97,16,9,26,0.00
2013-8-25,93.7,81.4,71.5,73.3,69.9,65.1,91,71,40,30.13,30.04,13,8,22,0.00
2013-8-26,92.8,82.1,72.7,70.8,68.8,65.6,89,67,41,30.12,30.00,16,10,26,0.00
2013-8-27,92.1,80.7,70.4,68.6,65.7,58.5,89,64,34,30.04,29.94,15,9,23,0.00
2013-8-28,91.0,79.7,68.5,72.4,69.7,66.4,94,73,51,30.00,29.93,12,7,17,0.00
2013-8-29,97.6,84.2,71.9,71.0,66.6,60.5,88,60,31,29.99,29.89,12,7,19,0.00
2013-8-30,101.5,86.0,71.7,70.1,65.5,55.3,85,55,22,29.92,29.78,10,6,15,0.00
2013-8-31,102.2,86.4,72.2,71.1,66.3,60.3,82,55,26,29.84,29.70,11,5,23,0.00
2013-9-1,88.3,80.4,73.7,73.1,68.0,61.1,78,66,57,29.96,29.72,13,7,24,0.00
2013-9-2,84.8,73.7,60.9,63.0,59.5,55.1,89,64,37,30.07,29.95,10,5,18,0.00
2013-9-3,88.3,74.1,59.0,63.6,60.1,55.9,94,65,35,30.09,29.97,8,4,17,0.00
2013-9-4,90.7,75.1,57.6,63.6,58.9,47.0,95,62,24,30.13,30.02,9,3,16,0.00
2013-9-5,92.2,79.1,65.1,66.4,63.8,60.3,90,62,35,30.13,30.02,11,5,20,0.00
2013-9-6,96.3,81.4,68.6,67.6,64.9,61.6,84,60,33,30.07,29.91,13,7,21,0.00
2013-9-7,99.8,83.9,70.2,67.5,65.0,60.4,84,57,28,29.95,29.84,12,7,17,0.00
2013-9-8,98.8,85.0,70.6,66.8,63.2,58.5,79,51,28,29.89,29.78,14,8,22,0.00
2013-9-9,94.5,82.9,70.6,66.0,60.1,51.8,70,48,25,29.89,29.81,20,11,32,0.00
2013-9-10,92.8,81.8,71.3,66.3,61.0,55.7,71,51,32,30.04,29.89,19,11,28,0.00
2013-9-11,93.0,80.7,70.2,68.0,62.1,58.3,71,55,32,30.09,29.97,12,7,19,0.00
2013-9-12,79.5,74.4,71.2,70.3,68.1,61.3,89,81,57,30.12,30.02,15,8,21,0.00
2013-9-13,77.3,71.3,66.7,68.6,53.6,49.3,90,55,41,30.14,30.00,15,10,23,0.00
2013-9-14,84.9,71.8,56.6,63.3,57.1,50.0,85,61,45,30.03,29.88,14,8,21,0.00
2013-9-15,93.1,75.9,65.6,68.4,63.3,59.6,92,68,37,30.05,29.88,21,10,33,0.79
2013-9-16,76.4,68.9,65.2,69.9,66.3,63.3,96,92,77,30.15,30.03,16,8,24,0.00
2013-9-17,83.0,72.8,66.2,70.6,67.6,65.0,97,85,61,30.13,29.89,18,10,28,0.15
2013-9-18,91.4,79.1,69.2,70.5,66.2,61.0,90,68,40,29.92,29.75,22,13,41,0.00
2013-9-19,90.8,76.5,66.0,68.3,63.6,-99.9,95,71,46,29.95,29.72,22,12,40,1.22
2013-9-20,73.3,65.1,58.8,65.8,54.8,49.3,95,71,44,30.08,29.93,16,8,21,0.00
2013-9-21,79.6,66.4,53.1,58.4,54.2,50.1,92,67,41,30.04,29.89,7,4,13,0.00
2013-9-22,78.4,66.1,56.3,56.0,52.6,48.5,88,65,37,29.95,29.80,15,9,23,0.00
2013-9-23,79.4,67.8,54.4,55.7,52.8,49.6,85,61,40,29.83,29.70,23,13,33,0.00
2013-9-24,78.2,67.7,57.6,58.0,54.4,50.9,80,63,47,29.90,29.78,18,9,28,0.00
2013-9-25,83.8,68.1,53.7,60.8,56.2,51.4,94,69,36,29.92,29.73,16,7,21,0.00
2013-9-26,91.8,76.8,64.9,61.7,58.3,54.4,80,55,32,29.79,29.70,23,15,35,0.00
2013-9-27,87.0,76.9,67.6,65.4,60.8,58.1,73,59,43,29.85,29.72,22,15,34,0.00
2013-9-28,77.2,64.6,55.1,68.3,53.2,45.0,93,68,42,30.11,29.72,20,11,32,0.52
2013-9-29,73.9,61.1,49.6,53.4,47.5,41.3,91,64,35,30.13,29.93,9,4,16,0.00
2013-9-30,78.9,64.1,51.0,55.8,52.5,48.2,92,69,40,29.94,29.79,14,8,21,0.00
2013-10-1,84.7,70.4,56.3,66.4,59.2,51.2,85,69,50,29.91,29.82,16,8,23,0.00
2013-10-2,81.8,72.1,65.2,71.3,67.1,61.9,97,85,66,29.93,29.79,18,11,27,0.00
2013-10-3,86.9,81.7,74.4,70.4,68.2,66.3,77,64,55,29.74,29.63,23,17,36,0.00
2013-10-4,87.8,73.8,55.8,70.7,63.0,37.9,90,70,49,29.97,29.65,27,16,50,0.30
2013-10-5,64.7,53.5,47.2,41.8,37.0,33.1,70,54,35,30.14,29.97,18,11,28,0.00
2013-10-6,69.9,55.2,47.0,42.6,35.0,25.8,69,49,20,30.09,30.01,17,10,27,0.00
2013-10-7,73.8,58.2,43.6,44.1,39.1,33.4,77,52,26,30.22,30.08,10,5,15,0.00
2013-10-8,76.3,61.7,48.8,51.1,45.7,41.3,78,58,34,30.09,29.95,21,12,27,0.00
2013-10-9,79.8,64.6,52.7,55.9,51.9,48.3,85,66,36,30.02,29.93,18,12,27,0.00
2013-10-10,80.8,67.9,57.6,62.0,57.1,53.1,86,69,50,29.99,29.77,21,14,34,0.00
2013-10-11,81.8,69.3,60.9,62.7,51.0,33.1,86,58,18,29.90,29.69,20,13,31,0.00
2013-10-12,71.1,60.7,50.0,46.5,42.3,37.4,73,53,30,30.25,29.89,16,11,24,0.00
2013-10-13,69.5,59.1,45.2,52.2,44.9,38.9,81,60,41,30.34,30.20,21,10,30,0.00
2013-10-14,64.3,61.3,57.1,63.1,56.3,47.8,96,84,59,30.20,29.82,21,13,32,0.39
2013-10-15,59.5,52.0,45.2,56.1,43.1,38.1,96,73,52,30.19,29.91,17,10,25,0.01
2013-10-16,53.9,46.5,39.5,43.8,39.4,36.0,93,77,59,30.21,30.08,9,6,14,0.00
2013-10-17,68.0,51.8,39.5,48.1,40.5,31.5,96,70,29,30.10,29.98,13,6,19,0.01
2013-10-18,48.8,39.6,33.8,40.2,34.7,-99.9,94,85,72,30.23,30.07,17,9,24,0.21
2013-10-19,66.1,47.7,32.4,43.8,37.4,30.9,94,71,38,30.22,29.97,12,7,20,0.01
2013-10-20,70.1,55.5,41.3,49.1,42.6,36.1,83,63,42,29.98,29.82,15,8,23,0.00
2013-10-21,62.1,51.8,45.3,44.8,39.1,33.2,79,63,42,30.17,29.97,15,8,21,0.00
2013-10-22,71.3,56.9,46.7,46.2,41.7,38.8,75,59,37,30.13,30.02,17,9,29,0.00
2013-10-23,67.3,51.6,37.4,45.6,40.7,34.7,93,68,42,30.20,30.03,15,6,22,0.00
2013-10-24,53.5,46.0,38.9,42.6,35.0,30.5,85,67,45,30.47,30.15,16,8,25,0.00
2013-10-25,59.0,45.6,33.9,40.2,33.1,27.4,80,64,34,30.50,30.19,17,9,23,0.00
2013-10-26,63.8,52.3,44.1,52.6,40.1,28.1,89,67,29,30.22,30.14,15,7,21,0.03
2013-10-27,65.5,48.7,33.0,39.4,33.3,28.4,84,58,31,30.21,29.97,13,6,20,0.00
2013-10-28,66.3,57.2,46.0,58.4,52.1,33.8,97,84,60,30.09,29.98,18,12,24,0.00
2013-10-29,70.1,62.9,57.6,66.8,60.7,54.7,97,93,86,29.99,29.89,19,7,29,1.45
2013-10-30,73.1,60.3,51.0,68.7,58.5,49.2,97,94,80,29.96,29.71,18,10,27,0.10
2013-10-31,64.0,53.2,46.9,51.6,46.4,40.8,97,80,47,29.78,29.58,17,10,25,0.80
2013-11-1,61.8,51.8,42.3,46.6,40.9,37.9,85,67,46,30.15,29.78,18,8,27,0.00
2013-11-2,59.3,48.5,39.4,39.1,34.7,30.0,82,61,34,30.33,30.14,12,7,19,0.00
2013-11-3,62.5,51.0,43.1,42.2,38.1,33.7,72,62,44,30.18,29.85,29,18,42,0.00
2013-11-4,62.3,54.8,48.4,53.3,45.9,42.1,89,73,52,30.07,29.82,20,8,30,0.00
2013-11-5,61.0,54.7,40.2,59.9,52.9,37.5,97,94,88,30.11,29.85,20,13,39,0.21
2013-11-6,48.1,41.0,36.3,39.2,35.6,32.5,91,81,64,30.40,30.10,20,9,29,0.00
2013-11-7,60.8,47.8,37.9,40.6,36.4,32.9,86,67,39,30.50,30.33,8,4,12,0.00
2013-11-8,64.5,52.3,42.3,39.5,36.9,33.4,80,58,33,30.33,29.91,28,15,44,0.00
2013-11-9,62.9,51.5,41.5,46.7,41.4,36.5,85,69,52,30.31,30.02,11,6,19,0.00
2013-11-10,61.2,52.1,42.6,50.5,44.7,38.4,91,77,55,30.40,30.26,13,8,22,0.00
2013-11-11,56.6,47.1,28.8,52.9,43.2,21.3,94,86,72,30.68,30.19,23,11,34,0.00
2013-11-12,35.6,27.9,21.6,21.9,15.9,11.0,77,61,38,30.95,30.68,19,9,27,0.00
2013-11-13,49.2,35.7,23.1,28.2,20.7,15.6,76,56,42,30.77,30.24,20,13,30,0.00
2013-11-14,55.0,43.5,35.2,33.8,29.6,21.4,71,59,43,30.24,29.98,20,14,30,0.00
2013-11-15,59.9,47.9,34.3,48.3,40.2,31.0,91,76,53,30.00,29.69,17,11,23,0.00
2013-11-16,76.3,63.9,52.2,56.3,53.3,46.9,91,70,41,29.69,29.39,24,17,39,0.00
2013-11-17,66.0,56.5,45.5,46.8,31.8,16.4,70,42,17,30.12,29.39,26,14,39,0.00
2013-11-18,60.4,47.2,33.6,34.2,26.8,20.5,83,48,22,30.33,30.10,17,5,18,0.00
2013-11-19,59.4,49.9,42.1,37.5,31.5,26.5,70,50,36,30.26,29.91,25,15,36,0.00
2013-11-20,60.5,54.1,49.7,50.1,41.2,28.8,78,63,43,29.93,29.80,21,13,31,0.00
2013-11-21,53.0,37.3,25.0,50.6,34.5,20.3,95,90,76,30.57,29.91,23,16,35,0.35
2013-11-22,29.1,25.7,23.1,20.7,18.3,15.5,83,74,57,30.76,30.55,23,16,36,0.00
2013-11-23,34.5,29.4,21.7,21.3,16.7,11.9,68,59,48,30.85,30.71,19,12,25,0.00
2013-11-24,27.4,23.3,19.1,16.7,13.3,10.3,75,66,49,30.81,30.41,12,7,18,0.00
2013-11-25,35.9,29.9,26.4,29.0,23.6,16.9,89,77,67,30.41,30.28,12,6,16,0.00
2013-11-26,39.0,31.6,22.9,27.6,21.6,12.0,87,67,48,30.54,30.29,24,12,32,0.00
2013-11-27,36.8,26.8,15.7,21.1,16.1,10.3,82,65,48,30.56,30.28,14,8,21,0.00
2013-11-28,47.7,35.0,26.0,30.7,25.5,20.9,85,69,50,30.50,30.26,12,7,18,0.00
2013-11-29,53.7,38.4,25.0,34.9,28.3,21.0,88,69,45,30.50,30.23,19,10,27,0.00
2013-11-30,59.7,44.7,31.8,40.1,34.9,29.4,93,70,45,30.24,30.13,15,6,21,0.00
2013-12-1,59.9,44.8,31.1,42.8,36.9,28.5,94,76,47,30.15,29.92,9,4,10,0.00
2013-12-2,55.2,40.1,29.4,43.6,36.4,27.9,97,87,62,29.92,29.65,10,6,14,0.00
2013-12-3,60.7,44.2,33.7,49.3,40.9,32.5,97,89,62,29.66,29.51,12,6,16,0.01
2013-12-4,44.1,30.5,22.7,43.3,25.7,10.7,97,83,57,30.19,29.55,23,14,34,0.00
2013-12-5,22.5,17.9,15.7,11.8,6.6,3.7,77,61,54,30.51,30.19,21,15,31,0.00
2013-12-6,21.0,15.3,10.5,9.9,2.1,-2.0,78,56,41,30.75,30.45,20,15,27,0.00
2013-12-7,22.2,15.1,5.7,8.2,2.5,-1.6,74,58,43,30.80,30.40,14,9,22,0.00
2013-12-8,24.2,21.1,18.2,21.0,16.8,8.2,92,84,61,30.40,30.05,12,8,18,0.00
2013-12-9,18.5,14.5,11.2,13.4,6.6,2.5,87,71,57,30.52,30.31,16,8,21,0.00
2013-12-10,40.6,23.8,9.9,23.4,12.5,2.4,79,63,36,30.50,30.25,16,8,22,0.00
2013-12-11,31.1,24.6,17.4,21.8,13.0,3.6,88,63,40,30.72,30.32,21,9,30,0.00
2013-12-12,45.7,29.5,17.5,25.1,17.5,5.4,79,62,39,30.69,30.21,19,12,28,0.00
2013-12-13,45.3,38.3,29.5,38.9,33.6,24.5,94,83,75,30.21,29.81,19,11,29,0.00
2013-12-14,39.1,30.0,24.1,32.3,22.8,18.8,87,75,54,30.33,29.97,22,12,33,0.00
2013-12-15,60.7,39.8,21.8,29.7,24.4,18.5,88,59,26,30.32,30.11,15,8,23,0.00
2013-12-16,63.5,43.7,30.3,30.1,25.4,21.4,71,51,26,30.15,30.09,12,6,18,0.00
2013-12-19,61.4,52.6,34.6,49.5,45.9,29.3,91,78,64,29.67,29.55,22,10,31,0.00
2013-12-20,34.7,21.8,17.3,29.0,17.0,13.1,91,82,75,30.01,29.68,25,11,36,0.00
2013-12-21,27.3,24.4,22.7,25.4,21.0,15.8,93,87,74,29.91,29.62,18,9,22,0.00
2013-12-22,24.7,19.9,11.1,21.9,17.0,8.5,93,89,82,30.44,29.86,17,7,21,0.13
2013-12-23,17.5,14.8,10.4,14.6,11.6,7.7,92,87,81,30.69,30.43,14,4,16,0.00
2013-12-24,30.9,22.9,16.4,29.9,21.2,14.2,96,93,88,30.53,30.11,18,10,22,0.00
2013-12-25,40.7,30.6,22.4,33.8,27.3,20.3,96,88,68,30.38,30.24,9,4,12,0.21
2013-12-26,45.2,32.9,22.8,34.5,27.1,20.0,91,80,64,30.37,30.20,16,6,20,0.01
2013-12-27,47.3,35.5,22.2,34.6,28.8,20.0,92,77,52,30.34,30.18,10,6,12,0.00
2013-12-28,53.2,40.4,30.8,39.1,33.0,26.3,88,75,56,30.18,29.82,14,8,19,0.00
2013-12-29,40.7,20.5,12.4,35.8,11.2,2.1,86,67,47,30.34,29.91,34,16,42,0.00
2013-12-30,36.2,22.7,10.2,22.0,12.9,4.7,82,66,50,30.35,30.24,15,6,18,0.00
2013-12-31,52.2,38.4,25.0,30.1,26.2,20.0,83,63,40,30.33,30.03,26,11,34,0.00
2014-1-1,37.1,25.2,12.9,29.0,20.0,8.5,88,81,67,30.39,29.91,27,14,36,0.00
2014-1-2,31.5,19.1,7.1,24.1,13.7,2.9,86,79,70,30.52,30.38,18,7,25,0.00